Total_Precipitation_Accumulation
1.60 1.59 2.51 3.73 4.38 3.52 3.11 2.89 2.42 2.12 1.62 1.28 1.04 1.07 1.49 1.91 2.14 2.49 2.55 2.58 1.69 1.48 1.75 2.35 2.98 2.82 2.59 2.51 2.56 2.48 2.24 1.94 1.72 1.67 1.70 1.68 1.62 1.67 1.68 1.66 1.66 1.73 1.71 1.63 1.81 2.05 2.06 2.00 1.98
1.25 1.97 3.12 4.25 3.89 3.04 3.10 2.78 2.36 1.93 1.39 1.02 0.84 0.83 0.94 0.92 0.85 1.40 2.59 2.77 1.66 1.33 1.52 1.83 2.69 2.64 2.57 2.55 2.36 2.31 2.05 1.74 1.59 1.57 1.56 1.52 1.58 1.77 1.89 1.83 1.79 1.82 1.63 1.48 1.55 1.92 2.06 2.03 1.94
1.70 2.68 3.72 3.98 3.04 2.81 3.06 2.73 2.21 1.47 1.06 0.92 0.85 0.76 0.85 1.09 1.15 1.73 2.50 2.05 1.50 1.33 1.55 2.20 2.76 2.52 2.46 2.34 2.16 2.14 2.01 1.76 1.66 1.61 1.56 1.58 1.74 1.82 1.86 1.94 1.91 1.84 1.69 1.62 1.74 2.10 2.03 1.97 1.88
2.19 3.20 3.61 3.26 2.67 2.38 2.37 2.30 1.93 1.44 1.08 0.76 0.76 0.85 0.83 1.21 1.39 1.71 1.87 1.49 1.32 1.34 1.54 2.16 2.48 2.22 2.10 2.06 2.01 1.92 1.97 1.95 1.74 1.59 1.59 1.73 1.90 2.01 2.06 2.08 1.90 1.86 1.79 1.84 1.96 2.16 2.13 2.05 2.00
2.63 3.27 3.29 3.04 2.68 2.38 1.99 1.82 1.73 1.59 1.27 0.90 0.84 1.00 1.29 1.81 1.71 1.57 1.55 1.36 1.21 1.17 1.28 1.72 2.17 1.97 1.87 1.88 1.89 1.80 1.89 1.98 1.85 1.61 1.70 1.84 1.92 2.08 2.18 2.10 1.92 1.92 1.91 1.99 2.21 2.23 2.26 2.17 2.04
3.10 3.03 3.11 3.06 2.89 2.54 2.11 1.59 1.46 1.48 1.20 0.97 0.96 1.11 1.73 2.19 2.01 1.86 1.57 1.57 1.37 1.21 1.16 1.34 1.77 1.83 1.70 1.74 1.90 1.81 1.80 1.91 1.85 1.73 1.75 1.73 1.85 2.04 2.14 2.09 1.93 1.86 1.94 2.18 2.51 2.47 2.35 2.15 2.08
3.00 2.87 2.87 2.52 2.63 2.89 2.26 1.40 1.45 1.46 1.34 1.12 0.88 1.11 1.63 1.95 1.80 1.71 1.53 1.55 1.57 1.50 1.36 1.23 1.27 1.44 1.55 1.68 1.83 1.80 1.75 1.75 1.68 1.74 1.78 1.85 1.96 2.02 1.99 2.00 1.93 1.91 1.99 2.12 2.36 2.32 2.24 2.19 2.18
2.39 2.48 2.44 2.42 2.63 2.84 2.05 1.26 1.15 1.33 1.28 0.89 0.94 1.24 1.48 1.47 1.41 1.40 1.47 1.64 1.63 1.57 1.44 1.22 1.11 1.13 1.27 1.32 1.53 1.78 1.83 1.76 1.64 1.70 1.81 1.92 1.97 1.97 1.97 1.89 2.02 2.11 2.09 2.22 2.41 2.32 2.18 2.18 2.10
2.00 2.48 2.76 2.80 2.70 2.42 1.63 1.31 1.08 0.96 0.96 0.88 0.87 0.98 1.07 0.98 1.09 1.24 1.24 1.29 1.41 1.33 1.24 1.16 1.11 1.14 1.25 1.29 1.36 1.68 1.76 1.67 1.49 1.46 1.67 1.71 1.59 1.68 1.93 2.05 2.35 2.32 2.32 2.41 2.53 2.49 2.25 2.02 1.96
2.07 2.51 2.56 2.06 1.67 1.62 1.38 1.23 1.11 1.17 1.23 1.04 0.99 1.01 1.03 1.01 1.06 1.10 1.09 1.10 1.12 1.05 0.95 0.93 0.93 1.02 1.14 1.19 1.55 1.83 1.65 1.57 1.34 1.35 1.34 1.43 1.51 1.74 1.77 2.08 2.51 2.41 2.33 2.32 2.46 2.46 2.06 1.60 1.35
1.72 2.11 1.79 1.53 1.26 1.07 1.13 1.12 0.90 1.09 1.31 1.09 1.02 0.98 1.03 1.11 1.07 1.06 1.04 0.94 0.89 0.82 0.74 0.70 0.66 0.67 0.76 0.99 1.35 1.66 1.81 1.82 1.80 1.61 1.43 1.46 1.25 1.21 1.25 1.36 1.56 1.63 1.70 1.66 1.78 1.92 1.62 1.34 1.28
1.64 1.61 1.44 1.41 1.04 1.01 1.01 0.95 0.90 0.96 1.07 0.96 1.01 0.90 0.91 1.01 1.01 0.97 0.98 0.93 0.81 0.78 0.75 0.67 0.63 0.58 0.60 0.68 0.88 1.13 1.31 1.43 1.50 1.41 1.23 1.30 1.20 1.12 1.14 1.18 1.18 1.18 1.28 1.42 1.43 1.55 1.52 1.32 1.21
1.70 1.67 1.35 1.11 0.98 0.94 0.87 0.84 0.85 0.95 0.91 0.82 0.92 0.98 1.02 1.00 0.98 1.01 1.08 1.06 0.92 0.90 0.89 0.80 0.68 0.63 0.63 0.68 0.75 0.83 1.02 1.15 1.18 1.25 1.18 1.15 1.21 1.22 1.17 1.08 1.09 1.02 1.10 1.26 1.38 1.43 1.46 1.47 1.39
1.50 1.48 1.50 1.30 1.09 1.00 0.99 0.86 0.76 0.94 0.94 0.89 0.98 1.06 1.03 1.04 0.94 0.93 0.98 1.06 1.04 1.00 0.95 0.92 0.80 0.76 0.73 0.72 0.73 0.81 0.91 0.97 0.99 0.98 0.98 1.07 1.18 1.18 1.19 1.16 1.20 1.14 1.17 1.30 1.33 1.28 1.40 1.59 1.51
1.36 1.62 1.64 1.46 1.18 1.06 1.08 1.20 0.91 0.88 0.97 1.01 1.10 1.04 0.95 0.98 0.92 0.90 0.89 0.95 1.00 0.96 0.89 0.89 0.89 0.90 0.88 0.84 0.78 0.80 0.90 0.98 0.97 0.93 0.85 0.88 1.00 1.06 1.13 1.16 1.14 1.17 1.31 1.37 1.43 1.25 1.32 1.38 1.37
1.72 2.09 2.24 1.62 1.33 1.13 1.30 1.51 1.04 0.99 1.06 1.02 1.03 0.97 0.90 0.89 0.85 0.84 0.87 0.85 0.84 0.79 0.77 0.85 0.86 0.88 0.92 0.93 0.93 0.95 0.97 1.05 1.00 0.98 0.89 0.85 0.91 1.01 1.16 1.17 1.12 1.13 1.31 1.46 1.54 1.45 1.46 1.45 1.41
1.98 2.06 1.95 1.62 1.28 1.16 1.20 1.21 0.97 0.98 1.06 0.92 0.90 0.86 0.79 0.75 0.74 0.70 0.74 0.78 0.77 0.72 0.72 0.73 0.79 0.78 0.85 0.91 0.96 1.07 1.10 1.13 1.09 1.07 0.98 0.94 1.01 1.10 1.28 1.39 1.37 1.33 1.37 1.41 1.42 1.53 1.58 1.57 1.57
1.64 1.53 1.42 1.37 1.12 1.06 1.08 0.92 0.80 0.84 0.89 0.83 0.73 0.66 0.63 0.63 0.61 0.60 0.63 0.67 0.69 0.70 0.68 0.66 0.72 0.74 0.76 0.88 1.00 1.19 1.31 1.30 1.31 1.21 1.13 1.15 1.30 1.44 1.58 1.58 1.65 1.68 1.60 1.61 1.58 1.64 1.63 1.56 1.64
1.07 1.18 1.21 1.13 0.85 0.87 0.88 0.75 0.72 0.73 0.76 0.75 0.66 0.56 0.53 0.56 0.54 0.52 0.55 0.60 0.62 0.64 0.65 0.64 0.62 0.70 0.74 0.79 0.93 1.16 1.45 1.57 1.66 1.57 1.37 1.31 1.44 1.72 1.98 1.94 2.00 2.06 1.99 1.95 1.95 2.19 2.13 1.85 1.66
1.05 1.24 1.21 1.10 0.77 0.72 0.74 0.65 0.57 0.57 0.64 0.60 0.58 0.56 0.49 0.50 0.44 0.40 0.44 0.48 0.51 0.52 0.58 0.60 0.58 0.65 0.71 0.76 0.94 1.12 1.28 1.29 1.45 1.57 1.53 1.45 1.43 1.59 1.77 2.07 2.20 2.16 2.28 2.39 2.37 2.74 2.88 2.38 1.93
1.03 1.06 1.03 1.01 0.82 0.71 0.67 0.71 0.54 0.48 0.51 0.48 0.46 0.48 0.43 0.44 0.43 0.41 0.40 0.42 0.42 0.43 0.42 0.46 0.49 0.56 0.67 0.81 1.03 1.27 1.50 1.57 1.59 1.50 1.58 1.59 1.49 1.55 1.69 1.85 2.00 2.04 2.19 2.37 2.49 2.82 3.36 3.11 2.43
0.96 0.70 0.65 0.72 0.92 0.98 0.78 0.97 0.66 0.53 0.56 0.49 0.43 0.40 0.38 0.40 0.43 0.48 0.44 0.44 0.41 0.39 0.38 0.41 0.50 0.63 0.82 1.02 1.24 1.49 1.70 1.76 1.62 1.61 1.64 1.53 1.44 1.43 1.56 1.69 1.81 1.94 2.00 2.17 2.27 2.41 3.00 3.40 3.05
0.65 0.55 0.53 0.61 0.81 0.80 0.61 0.73 0.65 0.52 0.62 0.56 0.48 0.43 0.39 0.39 0.42 0.45 0.43 0.45 0.46 0.46 0.48 0.53 0.71 0.93 1.18 1.38 1.64 1.93 1.90 1.79 1.69 1.64 1.63 1.57 1.54 1.51 1.52 1.69 1.75 1.77 1.86 2.00 2.33 2.60 2.91 3.15 3.17
0.47 0.55 0.62 0.70 0.88 0.86 0.53 0.62 0.68 0.52 0.52 0.54 0.51 0.46 0.39 0.35 0.42 0.52 0.58 0.66 0.71 0.74 0.90 1.09 1.34 1.49 1.58 1.70 1.85 1.96 1.90 1.89 1.84 1.66 1.57 1.56 1.61 1.66 1.67 1.72 1.75 1.72 1.77 1.90 2.16 2.47 2.70 3.03 3.26
0.48 0.82 1.18 1.21 1.18 0.84 0.44 0.63 0.69 0.49 0.40 0.40 0.43 0.38 0.32 0.36 0.47 0.63 0.81 0.94 1.07 1.21 1.38 1.52 1.68 1.81 1.76 1.72 1.79 1.82 1.79 1.76 1.75 1.68 1.61 1.55 1.54 1.59 1.62 1.69 1.82 1.89 1.93 2.05 2.24 2.42 2.37 2.56 2.99
0.52 0.75 1.22 1.36 1.13 0.78 0.58 0.84 0.78 0.54 0.41 0.32 0.26 0.26 0.36 0.51 0.65 0.77 0.86 0.99 1.16 1.33 1.41 1.44 1.52 1.64 1.63 1.59 1.58 1.57 1.60 1.60 1.55 1.47 1.44 1.48 1.56 1.54 1.48 1.51 1.62 1.74 1.92 1.98 2.05 2.11 2.09 2.19 2.45
0.51 0.56 0.61 0.87 0.73 0.73 0.76 0.89 0.79 0.52 0.43 0.35 0.30 0.34 0.49 0.71 0.92 1.08 1.20 1.32 1.36 1.41 1.50 1.43 1.44 1.50 1.51 1.46 1.42 1.44 1.44 1.48 1.48 1.40 1.40 1.38 1.37 1.29 1.20 1.21 1.28 1.35 1.43 1.52 1.68 1.79 1.89 1.96 2.10
0.40 0.55 0.72 1.04 1.17 1.15 1.03 1.02 0.91 0.67 0.58 0.58 0.64 0.73 0.77 0.88 1.16 1.46 1.74 1.91 1.73 1.46 1.41 1.41 1.35 1.37 1.46 1.47 1.41 1.39 1.47 1.47 1.44 1.44 1.38 1.35 1.35 1.25 1.15 1.10 1.08 1.06 1.02 1.06 1.25 1.45 1.58 1.68 1.85
0.41 0.58 0.75 0.97 1.08 1.37 1.55 1.46 1.09 1.07 1.05 1.08 1.16 1.20 1.21 1.30 1.29 1.46 1.70 1.89 1.80 1.48 1.26 1.31 1.38 1.40 1.42 1.41 1.43 1.42 1.40 1.31 1.29 1.31 1.28 1.25 1.24 1.27 1.23 1.13 1.07 1.15 1.14 1.08 1.14 1.19 1.26 1.34 1.50
0.51 0.65 0.85 1.22 1.15 1.12 1.40 1.46 1.14 1.11 1.12 1.18 1.34 1.40 1.39 1.30 1.20 1.20 1.28 1.36 1.43 1.29 1.10 1.08 1.24 1.35 1.35 1.34 1.37 1.35 1.25 1.17 1.17 1.16 1.07 0.95 0.90 0.90 1.00 1.10 1.03 1.01 1.04 1.06 1.12 1.11 1.14 1.20 1.33